This demonstration page uses our WeatherBlox Daily Observations layout. Learn more.

Left ArrowRight Arrow

38.20091, -84.87328

Hourly Observations for July 9, 2022

Temp ( °F °C ) Dew Point ( °F °C ) Humidity (%) Winds ( mph kmh ) Pressure ( in mb ) Visibility ( mi km ) Precip ( " mm )
12:53 am 00:53 Clear 73 22.8 71 21.7 94 94 SE 5 7 29.96 1015 10 16 0.00 0.00
1:53 am 01:53 Mostly Cloudy 74 23.3 72 22.2 94 94 SE 5 7 29.95 1014 10 16 0.00 0.00
2:37 am 02:37 Cloudy 74 23.3 72 22.2 94 94 SSW 3 6 29.96 1015 10 16 0.00 0.00
2:53 am 02:53 Cloudy 74 23.3 72 22.2 94 94 Calm 29.97 1015 10 16 0.00 0.00
3:43 am 03:43 Cloudy with Heavy Rain 74 23.3 72 22.2 94 94 Calm 29.95 1014 3 4 0.09 2.29
3:51 am 03:51 Cloudy with Heavy Rain 73 23 72 22 94 94 E 6 9 29.94 1014 1 2 0.23 5.84
3:53 am 03:53 Cloudy with Heavy Rain 74 23.3 72 22.2 94 94 E 6 9 29.94 1014 2 2 0.24 6.10
3:59 am 03:59 Cloudy with Light Rain 74 23.3 72 22.2 94 94 ENE 7 11 29.94 1014 3 5 0.00 0.00
4:53 am 04:53 Cloudy 74 23.3 72 22.2 94 94 NW 3 6 29.95 1014 7 11 0.00 0.00
5:02 am 05:02 Cloudy with Heavy Rain 74 23.3 72 22.2 94 94 Calm 29.95 1014 2 3 0.06 1.52
5:13 am 05:13 Cloudy with Light Rain 74 23.3 72 22.2 94 94 SSW 3 6 29.95 1014 3 5 0.09 2.29
5:23 am 05:23 Cloudy 73 22.8 72 22.2 96 96 Calm 29.94 1014 10 16 0.09 2.29
5:34 am 05:34 Cloudy with Light Rain 74 23.3 72 22.2 94 94 Calm 29.94 1014 6 10 0.10 2.54
5:44 am 05:44 Cloudy with Light Rain 74 23.3 72 22.2 94 94 Calm 29.94 1014 7 11 0.10 2.54
5:53 am 05:53 Cloudy with Light Rain 74 23.3 72 22.2 94 94 Calm 29.95 1014 7 11 0.10 2.54
6:05 am 06:05 Cloudy with Light Rain 74 23.3 72 22.2 94 94 E 3 6 29.94 1014 6 10 0.01 0.25
6:21 am 06:21 Cloudy with Light Rain 74 23.3 72 22.2 94 94 Calm 29.95 1014 6 10 0.03 0.76
6:53 am 06:53 Cloudy with Mist and Fog 74 23.3 72 22.2 94 94 NNE 5 7 29.96 1015 5 8 0.04 1.02
7:53 am 07:53 Mostly Cloudy 74 23.3 72 22.2 94 94 E 3 6 29.97 1015 8 13 0.00 0.00
8:26 am 08:26 Cloudy 74 23.3 72 22.2 94 94 ENE 5 7 29.97 1015 7 11 0.00 0.00
8:53 am 08:53 Cloudy 73 22.8 71 21.7 94 94 NNE 7 11 29.98 1015 10 16 0.00 0.00
9:53 am 09:53 Cloudy with Mist and Fog 72 22.2 69 20.6 91 91 NE 7 11 30.00 1016 2 3 0.00 0.00
10:01 am 10:01 Cloudy with Light Rain 72 22.2 69 20.6 91 91 NE 7 11 30.00 1016 2 3 0.00 0.00
10:13 am 10:13 Cloudy with Mist and Fog 71 21.7 69 20.6 94 94 NE 5 7 30.01 1016 2 3 0.01 0.25
10:28 am 10:28 Cloudy with Light Rain 71 21.7 69 20.6 94 94 Calm 30.02 1016 2 3 0.02 0.51
10:37 am 10:37 Cloudy with Light Rain 71 21.7 69 20.6 94 94 NNE 5 7 30.02 1016 1 2 0.03 0.76
10:46 am 10:46 Cloudy with Light Rain 71 21.7 69 20.6 94 94 NE 6 9 30.02 1016 2 3 0.03 0.76
10:53 am 10:53 Cloudy with Light Rain 71 21.7 69 20.6 94 94 NE 6 9 30.02 1017 2 3 0.04 1.02
11:04 am 11:04 Cloudy with Light Rain 71 21.7 69 20.6 94 94 NE 8 13 30.02 1016 3 5 0.00 0.00
11:44 am 11:44 Cloudy with Heavy Rain 71 21.7 69 20.6 94 94 ENE 8 13 30.02 1016 2 3 0.07 1.78
11:53 am 11:53 Cloudy with Heavy Rain 71 21.7 69 20.6 94 94 E 10 17 30.01 1016 1 2 0.16 4.06
11:58 am 11:58 Cloudy with Heavy Rain 71 21.7 69 20.6 94 94 ENE 7 11 30.02 1016 1 2 0.04 1.02
12:05 pm 12:05 Cloudy with Light Rain 71 21.7 69 20.6 94 94 ENE 10 17 30.02 1016 2 3 0.05 1.27
12:09 pm 12:09 Cloudy with Light Rain 71 21.7 69 20.6 94 94 ENE 9 15 30.02 1016 3 5 0.05 1.27
12:19 pm 12:19 Cloudy with Light Rain 71 21.7 69 20.6 94 94 NE 7 11 30.02 1016 4 6 0.05 1.27
12:53 pm 12:53 Cloudy with Light Rain 71 21.7 69 20.6 94 94 ENE 8 13 30.01 1016 5 8 0.06 1.52
1:50 pm 13:50 Cloudy with Rain 72 22 68 20 88 88 NE 7 11 30.02 1016 2 3 0.05 1.27
1:53 pm 13:53 Cloudy with Rain 71 21.7 69 20.6 94 94 NE 6 9 30.01 1016 3 4 0.05 1.27
2:10 pm 14:10 Cloudy with Heavy Rain 70 21.1 68 20 93 93 NE 9 15 30.02 1017 2 3 0.06 1.52
2:15 pm 14:15 Cloudy with Heavy Rain 70 21.1 68 20 93 93 NE 7 11 30.02 1017 1 2 0.13 3.30
2:24 pm 14:24 Cloudy with Heavy Rain 70 21.1 67 19.4 90 90 NE 7 11 30.02 1017 1 1 0.25 6.35
2:31 pm 14:31 Cloudy with Heavy Rain 70 21.1 67 19.4 90 90 NE 8 13 30.02 1017 1 2 0.32 8.13
2:41 pm 14:41 Cloudy with Heavy Rain 70 21.1 67 19.4 90 90 ENE 7 11 30.01 1016 1 2 0.41 10.41
2:53 pm 14:53 Cloudy with Heavy Rain 70 21.1 68 20 93 93 NNE 5 7 30.02 1017 2 2 0.50 12.70
3:05 pm 15:05 Cloudy with Heavy Rain 70 21.1 68 20 93 93 NE 6 9 30.02 1017 2 3 0.05 1.27
3:16 pm 15:16 Cloudy with Rain 70 21.1 68 20 93 93 NE 9 15 30.01 1016 3 5 0.08 2.03
3:32 pm 15:32 Cloudy with Light Rain 70 21.1 67 19.4 90 90 NE 9 15 30.01 1016 10 16 0.08 2.03
3:40 pm 15:40 Cloudy with Light Rain 70 21.1 68 20 93 93 NE 10 17 30.01 1016 10 16 0.08 2.03
3:53 pm 15:53 Cloudy with Light Rain 71 21.7 68 20 90 90 NE 7 11 30.01 1016 10 16 0.08 2.03
4:29 pm 16:29 Cloudy 71 21.7 68 20 90 90 NE 9 15 30.01 1016 9 14 0.00 0.00
4:53 pm 16:53 Cloudy 73 22.8 68 20 84 84 NE 10 17 30.00 1016 10 16 0.00 0.00
5:18 pm 17:18 Cloudy 73 22.8 68 20 84 84 NE 10 17 29.99 1016 10 16 0.00 0.00
5:22 pm 17:22 Mostly Cloudy 73 22.8 68 20 84 84 NE 12 19 29.99 1016 10 16 0.00 0.00
5:44 pm 17:44 Cloudy 73 22.8 67 19.4 81 81 NE 12 19 29.98 1015 10 16 0.00 0.00
5:53 pm 17:53 Cloudy 73 22.8 67 19.4 81 81 ENE 12 19 29.98 1015 10 16 0.00 0.00
6:53 pm 18:53 Cloudy 75 23.9 67 19.4 76 76 NE 10 17 29.98 1015 10 16 0.00 0.00
7:53 pm 19:53 Cloudy 75 23.9 68 20 79 79 undefined N/A 29.98 1015 10 16 0.00 0.00
8:53 pm 20:53 Sunny 73 22.8 68 20 84 84 Calm 30.00 1016 10 16 0.00 0.00
9:53 pm 21:53 Clear 70 21.1 68 20 93 93 NNW 3 6 30.02 1017 7 11 0.00 0.00
10:50 pm 22:50 Partly Cloudy with Mist and Fog 70 21 68 20 94 94 NNW 5 7 30.01 1016 3 4 0.00 0.00
10:53 pm 22:53 Mostly Cloudy with Mist and Fog 69 20.6 67 19.4 93 93 NNW 3 6 30.01 1016 2 2 0.00 0.00
10:57 pm 22:57 Mostly Cloudy with Mist and Fog 69 20.6 67 19.4 93 93 NW 3 6 30.01 1016 1 2 0.00 0.00
11:05 pm 23:05 Partly Cloudy with Mist and Fog 69 20.6 67 19.4 93 93 NNW 3 6 30.01 1016 2 3 0.00 0.00
11:13 pm 23:13 Partly Cloudy with Mist and Fog 69 20.6 68 20 96 96 Calm 30.01 1016 5 8 0.00 0.00
11:53 pm 23:53 Mostly Clear with Mist and Fog 69 20.6 67 19.4 93 93 Calm 30.03 1017 4 6 0.00 0.00

Powered by AerisWeather